Regional Weather Roundup
Issued by NWS

Home | Current Version | Previous Version | Graphics & Text | Print | Product List | Glossary On
Versions: 1 2 3 4 5 6 7 8 9 10 11 12 13 14 15 16 17 18 19 20 21 22 23 24 25 26 27 28 29 30 31 32 33 34 35 36 37 38 39 40 41 42 43 44 45 46 47 48 49 50
000
ASUS43 KLSX 281307
RWRMO

WEATHER SUMMARY FOR MISSOURI
NATIONAL WEATHER SERVICE SPRINGFIELD MO
800 AM CDT MON JUL 28 2014

NOTE: "FAIR" INDICATES FEW OR NO CLOUDS BELOW 12,000 FEET WITH NO
       SIGNIFICANT WEATHER AND/OR OBSTRUCTIONS TO VISIBILITY.
       CURRENT SKY AND/OR WEATHER CONDITIONS ARE NOT AVAILABLE FOR
       CHILLICOTHE AND FARMINGTON.

MOZ001>031-035>038-043-044-053-054-281400-
...NORTHERN AND WESTERN MISSOURI...

CITY           SKY/WX    TMP DP  RH WIND       PRES   REMARKS
KANSAS CTY INT MOSUNNY   64  58  80 N8        30.20R
KANSAS C DTWN  SUNNY     67  58  72 N7        30.19R
LEE`S SUMMIT   SUNNY     65  58  78 N9        30.20R
ST JOSEPH      SUNNY     63  59  87 N7        30.21R
CHILLICOTHE      N/A     65  58  78 VRB6      30.19R
KIRKSVILLE     CLOUDY    64  60  87 N10       30.16R

$$
MOZ066>068-077>081-088>096-101>105-281400-
...SOUTHWEST MISSOURI...

CITY           SKY/WX    TMP DP  RH WIND       PRES   REMARKS
SPRINGFIELD    SUNNY     68  58  70 N7        30.17R
JOPLIN         MOSUNNY   67  60  78 N6        30.19R

$$
MOZ032>034-039>042-045>050-055>058-069>072-281400-
...CENTRAL MISSOURI...

CITY           SKY/WX    TMP DP  RH WIND       PRES   REMARKS
COLUMBIA       SUNNY     66  60  81 N13       30.13R
JEFFERSON CITY SUNNY     67  59  75 NW7       30.12R
ROLLA          SUNNY     64  57  78 NW9       30.11R
SEDALIA        SUNNY     65  58  78 NW7       30.17R
WHITEMAN AFB   SUNNY     64  50  59 NW12      30.17R
OSAGE BEACH    SUNNY     66  55  68 N6        30.15R

$$
MOZ051-052-059>065-281400-
...EAST CENTRAL MISSOURI...

CITY           SKY/WX    TMP DP  RH WIND       PRES   REMARKS
ST LOUIS INTL  MOSUNNY   70  61  73 NW12      30.08R
SPIRIT OF STL  MOSUNNY   68  60  75 NW8       30.08R
ST CHARLES     SUNNY     68  61  78 N10       30.07R

$$
MOZ072>076-082>087-097>100-106>115-281400-
...SOUTH CENTRAL AND SOUTHEAST MISSOURI...

CITY           SKY/WX    TMP DP  RH WIND       PRES   REMARKS
CAPE GIRARDEAU SUNNY     70  60  70 NW7       30.06R
FARMINGTON     SUNNY     66  57  72 NW8       30.11R
POPLAR BLUFF   SUNNY     70  59  68 NW7       30.07R
WEST PLAINS    SUNNY     67  58  72 NW8       30.15R

$$



USA.gov is the U.S. government's official web portal to all federal, state and local government web resources and services.